Regional Weather Roundup
Issued by NWS

Current Version | Previous Version | Text Only | Print | Product List | Glossary On
Versions: 1 2 3 4 5 6 7 8 9 10 11 12 13 14 15 16 17 18 19 20 21 22 23 24 25 26 27 28 29 30 31 32 33 34 35 36 37 38 39 40 41 42 43 44 45 46 47 48 49 50
000
ASUS44 KFWD 291215
RWRTX
NORTH TEXAS HOURLY WEATHER ROUNDUP
NATIONAL WEATHER SERVICE FORT WORTH TX
700 AM CDT THU JUN 29 2017

NOTE: "FAIR" INDICATES FEW OR NO CLOUDS BELOW 12,000 FEET WITH NO
SIGNIFICANT WEATHER AND/OR OBSTRUCTIONS TO VISIBILITY.

TXZ118-119-291300-
DALLAS/FORT WORTH METROPLEX

CITY           SKY/WX    TMP DP  RH WIND       PRES   REMARKS
DFW AIRPORT    MOCLDY    76  72  87 S8        29.86R
6HR MIN TEMP:  75; 6HR MAX TEMP:  80;

DALLAS LOVE    PTCLDY    75  70  84 S14       29.86S
6HR MIN TEMP:  75; 6HR MAX TEMP:  82;

FTW MEACHAM    CLOUDY    77  74  90 S10       29.87R
6HR MIN TEMP:  75; 6HR MAX TEMP:  80;

DAL-EXECUTIVE  CLEAR     73  71  93 S6        29.86F
6HR MIN TEMP:  73; 6HR MAX TEMP:  78;

FTW-ALLIANCE   CLOUDY    75  73  93 S9        29.86R
6HR MIN TEMP:  74; 6HR MAX TEMP:  79;

FTW-NAS-JRB    MOCLDY    77  72  84 S13       29.87R
FTW-SPINKS     CLOUDY    75  72  88 S8        29.88S
ARLINGTON      CLOUDY    75  72  90 S9        29.87R
6HR MIN TEMP:  74; 6HR MAX TEMP:  78;

ADDISON        MOCLDY    75  70  83 S6        29.88R
MESQUITE       CLEAR     72  70  94 CALM      29.88S
LANCASTER      MOCLDY    72  68  89 SE6       29.89S
6HR MIN TEMP:  70; 6HR MAX TEMP:  74;

$$

TXZ091>094-102>105-117-120-121-131>134-291300-
NORTH CENTRAL TEXAS

CITY           SKY/WX    TMP DP  RH WIND       PRES   REMARKS
SHRMAN/DENISON CLEAR     73  69  88 S10       29.89R
6HR MIN TEMP:  72; 6HR MAX TEMP:  76;

GAINESVILLE    CLOUDY    73  70  91 S9        29.89S
6HR MIN TEMP:  72; 6HR MAX TEMP:  74;

BOWIE          CLEAR     73  73 100 SE10      29.87R
6HR MIN TEMP:  73; 6HR MAX TEMP:  76;

BRIDGEPORT     CLEAR     73  71  95 S3        29.88S
6HR MIN TEMP:  73; 6HR MAX TEMP:  76;

DECATUR        CLOUDY    74  71  89 S10       29.88S
6HR MIN TEMP:  74; 6HR MAX TEMP:  77;

DENTON         CLOUDY    75  73  93 S12       29.87R
6HR MIN TEMP:  74; 6HR MAX TEMP:  78;

MCKINNEY       PTCLDY    74  72  93 S9        29.88R
6HR MIN TEMP:  73; 6HR MAX TEMP:  77;

BONHAM         CLEAR     72  70  94 S8        29.89R
GREENVILLE     PTCLDY    75  72  88 S9        29.89S
ROCKWALL       PTCLDY    72  72  99 S8        29.88S
6HR MIN TEMP:  72; 6HR MAX TEMP:  76;

TERRELL        PTCLDY    72  70  93 SE3       29.89S
6HR MIN TEMP:  72; 6HR MAX TEMP:  77;

WAXAHACHIE     PTCLDY    71  71 100 SE5       29.89S
6HR MIN TEMP:  71; 6HR MAX TEMP:  76;

CLEBURNE       CLOUDY    73  73 100 S9G15     29.89S
GRANBURY       PTCLDY    74  71  88 SE3       29.88R
6HR MIN TEMP:  74; 6HR MAX TEMP:  78;

$$

TXZ083>090-098>101-113>116-127>130-139>142-154-155-291300-
WESTERN NORTH TEXAS

CITY           SKY/WX    TMP DP  RH WIND       PRES   REMARKS
WICHITA FALLS  CLEAR     73  68  84 S14       29.82S
6HR MIN TEMP:  72; 6HR MAX TEMP:  77;

WF-KICKAPOO    CLEAR     74  69  85 S13       29.85S
6HR MIN TEMP:  74; 6HR MAX TEMP:  77;

VERNON         PTCLDY    75  64  69 S15       29.80S
6HR MIN TEMP:  75; 6HR MAX TEMP:  95;

ABILENE        CLOUDY    72  67  84 S8        29.86R
6HR MIN TEMP:  72; 6HR MAX TEMP:  77;

ABILENE-DYESS  CLEAR     73  67  81 SE13G21   29.84R
6HR MIN TEMP:  73; 6HR MAX TEMP:  78;

GRAHAM         CLEAR     73  73 100 SE3       29.84R
6HR MIN TEMP:  73; 6HR MAX TEMP:  77;

BRECKENRIDGE   CLEAR     74  71  91 SE6       29.84S
6HR MIN TEMP:  74; 6HR MAX TEMP:  79;

CISCO          CLEAR     72  70  94 S9        29.87R
EASTLAND       CLEAR     71  69  95 SE6       29.86S
6HR MIN TEMP:  70; 6HR MAX TEMP:  75;

RANGER         CLEAR     70  69  98 S6        29.87S
6HR MIN TEMP:  65; 6HR MAX TEMP:  87;

MINERAL WELLS  CLEAR     71  69  93 SE9       29.85S
6HR MIN TEMP:  71; 6HR MAX TEMP:  74;

STEPHENVILLE   CLEAR     71  68  91 CALM      29.90S
6HR MIN TEMP:  71; 6HR MAX TEMP:  74;

COMANCHE       CLEAR     72  72 100 S7        29.88S
6HR MIN TEMP:  72; 6HR MAX TEMP:  74;

BROWNWOOD      CLEAR     72  70  94 SE7       29.87S
COLEMAN        PTCLDY    70  66  88 S7        29.88R
6HR MIN TEMP:  70; 6HR MAX TEMP:  77;

$$

TXZ143>147-156>162-174-175-291300-
CENTRAL TEXAS

CITY           SKY/WX    TMP DP  RH WIND       PRES   REMARKS
WACO           CLOUDY    76  73  91 S10       29.86F
6HR MIN TEMP:  74; 6HR MAX TEMP:  78;

WACO-MCGREGOR  CLOUDY    74  72  93 S8        29.87S
6HR MIN TEMP:  74; 6HR MAX TEMP:  77;

HILLSBORO      CLOUDY    73  72  96 SE7       29.88S
6HR MIN TEMP:  73; 6HR MAX TEMP:  77;

CORSICANA      CLEAR     74  71  91 S7        29.89S
6HR MIN TEMP:  73; 6HR MAX TEMP:  79;

MEXIA          MOCLDY    71  69  95 CALM      29.88S
6HR MIN TEMP:  70; 6HR MAX TEMP:  74;

HEARNE         CLOUDY    74  74 100 E5        29.89S
6HR MIN TEMP:  73; 6HR MAX TEMP:  76;

CAMERON        MOCLDY    73  72  96 CALM      29.87S
6HR MIN TEMP:  73; 6HR MAX TEMP:  78;

TEMPLE         CLOUDY    74  73  97 S7        29.88S
6HR MIN TEMP:  73; 6HR MAX TEMP:  77;

KILLEEN        MOCLDY    73  72  94 S9        29.87R
6HR MIN TEMP:  72; 6HR MAX TEMP:  77;

KILLEEN-SKYLRK PTCLDY    72  72 100 S5        29.88S
6HR MIN TEMP:  72; 6HR MAX TEMP:  78;

FORT HOOD      PTCLDY    72  70  94 SE3       29.85R
6HR MIN TEMP:  70; 6HR MAX TEMP:  77;

HAMILTON       MOCLDY    72  72 100 S6        29.90R FOG
6HR MIN TEMP:  71; 6HR MAX TEMP:  73;

LAMPASAS       CLOUDY    73  72  97 CALM      29.88S
6HR MIN TEMP:  71; 6HR MAX TEMP:  76;

$$

TXZ095>097-106>112-122>126-135>138-148>153-164>167-291300-
EAST TEXAS

CITY           SKY/WX    TMP DP  RH WIND       PRES   REMARKS
PARIS            N/A     71  70  96 SE8       29.91R FOG
6HR MIN TEMP:  69; 6HR MAX TEMP:  75;

SULPHUR SPRNGS PTCLDY    74  72  93 SE7       29.91S
6HR MIN TEMP:  74; 6HR MAX TEMP:  77;

MOUNT PLEASANT   N/A     71  71 100 SE3       29.92S
6HR MIN TEMP:  71; 6HR MAX TEMP:  74;

GILMER         CLOUDY    72  70  93 CALM      29.91S
6HR MIN TEMP:  71; 6HR MAX TEMP:  75;

MINEOLA        CLOUDY    73  72  94 CALM      29.90S
TYLER          CLOUDY    73  73 100 S9        29.90S
6HR MIN TEMP:  72; 6HR MAX TEMP:  76;

LONGVIEW       MOCLDY    74  72  93 S7        29.90S
6HR MIN TEMP:  73; 6HR MAX TEMP:  76;

MARSHALL         N/A     73  69  90 CALM      29.93S
6HR MIN TEMP:  71; 6HR MAX TEMP:  75;

ATHENS         CLOUDY    70  70 100 SE3       29.89R
PALESTINE      MOCLDY    72  72  99 SE3       29.90S
JACKSONVILLE   CLOUDY    72  71  98 SE5       29.92S
HENDERSON      CLOUDY    73  71  94 CALM      29.92S
6HR MIN TEMP:  71; 6HR MAX TEMP:  74;

CENTER         CLOUDY    77  76  96 CALM      29.92S
6HR MIN TEMP:  77; 6HR MAX TEMP:  78;

NACOGDOCHES    CLOUDY    73  70  88 SE5       29.88F
6HR MIN TEMP:  72; 6HR MAX TEMP:  73;

LUFKIN         CLOUDY    73  72  96 E5        29.89S
6HR MIN TEMP:  72; 6HR MAX TEMP:  73;

$$

SUPPLEMENTAL OBSERVATIONS (NWS FORT WORTH AREA)

CITY           SKY/WX    TMP DP  RH WIND       PRES   REMARKS
DENISON DAM      N/A     73  66  78 S6          N/A
PAT MAYSE LAKE   N/A     72  70  94 SE10        N/A
GREENVILLE       N/A     73  70  88 S5          N/A
CEDAR HILL       N/A     73  68  83 S7G15       N/A


USA.gov is the U.S. government's official web portal to all federal, state and local government web resources and services.